GLOBALSTAR M050 (25908 NORAD) Tracking and Keplerian Element Data

This shows tracking and keplerian element data for the satellite.

Feedback or suggestion? Click here.




ElementValue
Catalog25908
NameGLOBALSTAR M050
Epoch Orbit13203
Epoch Day34.44483961
Epoch Year2025
RAAN123.9689
Inclination51.9987
Eccentricity0.0009929
Argument of Perigee125.4623
Mean Anonmoly315.7887
Mean Motion12.07447956
Decay Rate-1.35E-06
L11 25908U 99049B 25034.44483961 -.00000135 00000+0 -52761-3 0 9992
L22 25908 51.9987 123.9689 0009929 125.4623 315.7887 12.07447956132038



Live tracking and technical data element details for GLOBALSTAR M050 (NORAD 25908). GLOBALSTAR M050 can be tracked NOW for your location showing map with azimuth and elevation plus other details from your city location.







IsCatalogInMostPopularTable: catalog: 25908, numindb: 281
Update: records affected: 1



GetName: 25908 GLOBALSTAR M050

Hit Count: updated at: Sat, 24 May 2025 16:04:11 GMT